User: anonymous   Login
Location: Unspecified
(0.0000°N, 0.0000°E)
Time: 06:10:35
(UTC+00:00)
Language:

PEASSS - Orbit

View from above orbital plane
View from above orbital plane
View from above satellite
View from above satellite

Ground track
Ground track

The orbit data is extracted from the following two-line orbital elements,

1 42015U 17008BV  17296.55801454 +.00002257 +00000-0 +98092-4 0  9993
2 42015 097.4804 357.6437 0008096 123.7048 236.4962 15.23307977037881
Epoch (UTC): 23 October 2017 13:23:32
Eccentricity: 0.0008096
inclination: 97.4804°
perigee height: 490 km
apogee height: 501 km
right ascension of ascending node: 357.6437°
argument of perigee: 123.7048°
revolutions per day: 15.23307977
mean anomaly at epoch: 236.4962°
orbit number at epoch: 3788

The dashed part of the orbit path shows where the satellite is in the earth's shadow,  

DLR